Time,TemperatureF,DewpointF,PressureIn,WindDirection,WindDirectionDegrees,WindSpeedMPH,WindSpeedGustMPH,Humidity,HourlyPrecipIn,Conditions,Clouds,dailyrainin,SoftwareType,DateUTC
2013-07-30 00:01:00,78.8,73.6,30.16,South,180,0.0,0.0,84,0.00,,,0.04,Wunderground v.1.15,2013-07-30 04:01:00,
2013-07-30 00:02:00,78.8,73.6,30.16,South,180,0.0,0.0,84,0.00,,,0.04,Wunderground v.1.15,2013-07-30 04:02:00,
2013-07-30 00:04:00,78.8,73.6,30.16,South,179,0.0,0.0,84,0.00,,,0.00,Wunderground v.1.15,2013-07-30 04:04:00,
2013-07-30 00:09:00,78.8,73.6,30.16,South,180,0.0,0.0,84,0.00,,,0.00,Wunderground v.1.15,2013-07-30 04:09:00,
2013-07-30 00:14:00,78.8,73.6,30.16,South,180,0.0,0.0,84,0.00,,,0.00,Wunderground v.1.15,2013-07-30 04:14:00,
2013-07-30 00:15:00,78.7,73.5,30.17,South,179,0.0,0.0,84,0.00,,,0.00,Wunderground v.1.15,2013-07-30 04:15:00,
2013-07-30 07:27:00,75.9,73.7,30.16,South,180,0.0,0.0,93,0.00,,,0.00,Wunderground v.1.15,2013-07-30 11:27:00,
2013-07-30 07:32:00,76.0,73.8,30.16,South,179,0.0,0.0,93,0.00,,,0.00,Wunderground v.1.15,2013-07-30 11:32:00,
2013-07-30 07:38:00,76.1,73.9,30.17,South,180,0.0,0.0,93,0.00,,,0.00,Wunderground v.1.15,2013-07-30 11:38:00,
2013-07-30 07:43:00,76.2,74.0,30.16,South,180,0.0,0.0,93,0.00,,,0.00,Wunderground v.1.15,2013-07-30 11:43:00,
2013-07-30 07:49:00,76.4,74.5,30.16,South,180,0.0,0.0,94,0.00,,,0.00,Wunderground v.1.15,2013-07-30 11:49:00,
2013-07-30 07:54:00,76.6,74.7,30.16,South,180,0.0,0.0,94,0.00,,,0.00,Wunderground v.1.15,2013-07-30 11:54:00,
2013-07-30 08:00:00,77.0,75.1,30.17,South,179,0.0,0.0,94,0.00,,,0.00,Wunderground v.1.15,2013-07-30 12:00:00,
2013-07-30 08:05:00,77.3,74.8,30.17,South,180,0.0,0.0,92,0.00,,,0.00,Wunderground v.1.15,2013-07-30 12:05:00,
2013-07-30 08:11:00,78.0,75.2,30.17,South,180,0.0,0.0,91,0.00,,,0.00,Wunderground v.1.15,2013-07-30 12:11:00,
2013-07-30 08:16:00,78.5,75.3,30.17,South,180,0.0,0.0,90,0.00,,,0.00,Wunderground v.1.15,2013-07-30 12:16:00,
2013-07-30 08:22:00,79.0,75.8,30.17,South,180,0.0,0.0,90,0.00,,,0.00,Wunderground v.1.15,2013-07-30 12:22:00,
2013-07-30 08:27:00,79.6,76.1,30.17,South,180,0.0,0.0,89,0.00,,,0.00,Wunderground v.1.15,2013-07-30 12:27:00,
2013-07-30 08:33:00,80.3,76.4,30.17,South,180,0.0,0.0,88,0.00,,,0.00,Wunderground v.1.15,2013-07-30 12:33:00,
2013-07-30 08:38:00,80.8,76.9,30.17,South,179,0.0,0.0,88,0.00,,,0.00,Wunderground v.1.15,2013-07-30 12:38:00,
2013-07-30 08:44:00,81.5,77.3,30.17,South,180,0.0,0.0,87,0.00,,,0.00,Wunderground v.1.15,2013-07-30 12:44:00,
2013-07-30 08:49:00,82.2,77.2,30.17,South,180,0.0,0.0,85,0.00,,,0.00,Wunderground v.1.15,2013-07-30 12:49:00,
2013-07-30 08:55:00,82.8,77.5,30.17,South,180,0.0,0.0,84,0.00,,,0.00,Wunderground v.1.15,2013-07-30 12:55:00,
2013-07-30 09:00:00,83.2,77.5,30.18,South,179,0.0,0.0,83,0.00,,,0.00,Wunderground v.1.15,2013-07-30 13:00:00,
2013-07-30 09:05:00,83.6,77.1,30.18,South,180,0.0,0.0,81,0.00,,,0.00,Wunderground v.1.15,2013-07-30 13:05:00,
2013-07-30 09:12:00,84.0,77.5,30.18,South,179,0.0,0.0,81,0.00,,,0.00,Wunderground v.1.15,2013-07-30 13:12:00,
2013-07-30 09:17:00,84.5,77.6,30.18,South,179,0.0,0.0,80,0.00,,,0.00,Wunderground v.1.15,2013-07-30 13:17:00,
2013-07-30 09:23:00,84.9,77.3,30.18,South,180,0.0,0.0,78,0.00,,,0.00,Wunderground v.1.15,2013-07-30 13:23:00,
2013-07-30 09:28:00,85.0,77.4,30.18,South,180,0.0,0.0,78,0.00,,,0.00,Wunderground v.1.15,2013-07-30 13:28:00,
2013-07-30 09:34:00,85.2,77.9,30.18,South,180,0.0,0.0,79,0.00,,,0.00,Wunderground v.1.15,2013-07-30 13:34:00,
2013-07-30 09:39:00,85.4,77.8,30.18,South,179,0.0,0.0,78,0.00,,,0.00,Wunderground v.1.15,2013-07-30 13:39:00,
2013-07-30 09:45:00,85.8,77.8,30.18,South,179,0.0,0.0,77,0.00,,,0.00,Wunderground v.1.15,2013-07-30 13:45:00,
2013-07-30 09:50:00,86.1,78.0,30.18,South,179,0.0,0.0,77,0.00,,,0.00,Wunderground v.1.15,2013-07-30 13:50:00,
2013-07-30 09:56:00,86.5,77.6,30.18,South,179,0.0,0.0,75,0.00,,,0.00,Wunderground v.1.15,2013-07-30 13:56:00,
2013-07-30 10:02:00,86.8,77.5,30.18,South,180,0.0,0.0,74,0.00,,,0.00,Wunderground v.1.15,2013-07-30 14:02:00,
2013-07-30 10:08:00,87.0,77.3,30.18,SSE,149,0.0,0.0,73,0.00,,,0.00,Wunderground v.1.15,2013-07-30 14:08:00,
2013-07-30 10:13:00,87.2,77.5,30.18,SE,144,0.0,0.0,73,0.00,,,0.00,Wunderground v.1.15,2013-07-30 14:13:00,
2013-07-30 10:18:00,87.2,77.1,30.18,SE,146,0.0,0.0,72,0.00,,,0.00,Wunderground v.1.15,2013-07-30 14:18:00,
2013-07-30 10:24:00,87.4,77.3,30.19,SSE,148,0.0,0.0,72,0.00,,,0.00,Wunderground v.1.15,2013-07-30 14:24:00,
2013-07-30 10:29:00,87.6,77.0,30.19,SSE,147,0.0,0.0,71,0.00,,,0.00,Wunderground v.1.15,2013-07-30 14:29:00,
2013-07-30 10:34:00,87.7,76.7,30.19,SSE,147,0.0,0.0,70,0.00,,,0.00,Wunderground v.1.15,2013-07-30 14:34:00,
2013-07-30 10:40:00,88.0,76.1,30.19,SE,146,0.0,0.0,68,0.00,,,0.00,Wunderground v.1.15,2013-07-30 14:40:00,
2013-07-30 10:45:00,88.2,76.3,30.19,SE,146,0.0,0.0,68,0.00,,,0.00,Wunderground v.1.15,2013-07-30 14:45:00,
2013-07-30 10:51:00,88.7,77.2,30.18,NE,46,0.0,0.0,69,0.00,,,0.00,Wunderground v.1.15,2013-07-30 14:51:00,
2013-07-30 10:56:00,88.8,76.0,30.18,NNW,348,0.0,0.0,66,0.00,,,0.00,Wunderground v.1.15,2013-07-30 14:56:00,
2013-07-30 11:02:00,89.0,76.6,30.18,ESE,102,0.0,0.0,67,0.00,,,0.00,Wunderground v.1.15,2013-07-30 15:02:00,
2013-07-30 11:08:00,89.5,76.2,30.18,ESE,113,0.0,2.0,65,0.00,,,0.00,Wunderground v.1.15,2013-07-30 15:08:00,
2013-07-30 11:14:00,89.4,76.1,30.18,East,99,0.0,0.0,65,0.00,,,0.00,Wunderground v.1.15,2013-07-30 15:14:00,
2013-07-30 11:20:00,90.0,76.2,30.18,East,88,0.0,0.0,64,0.00,,,0.00,Wunderground v.1.15,2013-07-30 15:20:00,
2013-07-30 11:25:00,90.4,75.1,30.18,East,91,0.0,0.0,61,0.00,,,0.00,Wunderground v.1.15,2013-07-30 15:25:00,
2013-07-30 11:30:00,90.6,74.3,30.18,East,91,0.0,0.0,59,0.00,,,0.00,Wunderground v.1.15,2013-07-30 15:30:00,
2013-07-30 11:36:00,91.1,75.3,30.18,East,90,0.0,0.0,60,0.00,,,0.00,Wunderground v.1.15,2013-07-30 15:36:00,
2013-07-30 11:42:00,91.5,75.7,30.18,NNW,338,0.0,0.0,60,0.00,,,0.00,Wunderground v.1.15,2013-07-30 15:42:00,
2013-07-30 11:47:00,91.5,75.7,30.18,NNW,338,0.0,0.0,60,0.00,,,0.00,Wunderground v.1.15,2013-07-30 15:47:00,
2013-07-30 11:53:00,92.3,75.9,30.18,NNW,340,0.0,0.0,59,0.00,,,0.00,Wunderground v.1.15,2013-07-30 15:53:00,
2013-07-30 11:58:00,92.6,75.1,30.18,NNW,340,0.0,0.0,57,0.00,,,0.00,Wunderground v.1.15,2013-07-30 15:58:00,
2013-07-30 12:03:00,92.6,75.1,30.18,NNW,341,0.0,3.0,57,0.00,,,0.00,Wunderground v.1.15,2013-07-30 16:03:00,
2013-07-30 12:09:00,93.3,75.8,30.18,NNW,346,0.0,3.0,57,0.00,,,0.00,Wunderground v.1.15,2013-07-30 16:09:00,
2013-07-30 12:14:00,93.1,75.6,30.18,NNW,347,0.0,0.0,57,0.00,,,0.00,Wunderground v.1.15,2013-07-30 16:14:00,
2013-07-30 12:19:00,92.9,75.4,30.18,ESE,109,0.0,0.0,57,0.00,,,0.00,Wunderground v.1.15,2013-07-30 16:19:00,
2013-07-30 12:25:00,93.5,74.9,30.18,ESE,107,0.0,0.0,55,0.00,,,0.00,Wunderground v.1.15,2013-07-30 16:25:00,
2013-07-30 12:30:00,93.8,75.2,30.18,East,98,0.0,0.0,55,0.00,,,0.00,Wunderground v.1.15,2013-07-30 16:30:00,
2013-07-30 12:35:00,94.0,75.4,30.17,East,84,0.0,0.0,55,0.00,,,0.00,Wunderground v.1.15,2013-07-30 16:35:00,
2013-07-30 12:41:00,94.0,74.3,30.17,North,351,0.0,3.0,53,0.00,,,0.00,Wunderground v.1.15,2013-07-30 16:41:00,
2013-07-30 12:47:00,93.7,74.5,30.17,North,5,0.0,3.0,54,0.00,,,0.00,Wunderground v.1.15,2013-07-30 16:47:00,
2013-07-30 12:53:00,93.9,75.8,30.17,ENE,65,0.0,0.0,56,0.00,,,0.00,Wunderground v.1.15,2013-07-30 16:53:00,
2013-07-30 12:58:00,94.3,75.1,30.17,ENE,64,0.0,0.0,54,0.00,,,0.00,Wunderground v.1.15,2013-07-30 16:58:00,
2013-07-30 13:04:00,94.2,75.0,30.17,ESE,114,0.0,1.0,54,0.00,,,0.00,Wunderground v.1.15,2013-07-30 17:04:00,
2013-07-30 13:09:00,93.9,74.2,30.16,SSE,160,1.0,5.0,53,0.00,,,0.00,Wunderground v.1.15,2013-07-30 17:09:00,
2013-07-30 13:15:00,94.0,74.3,30.16,NE,50,0.0,1.0,53,0.00,,,0.00,Wunderground v.1.15,2013-07-30 17:15:00,
2013-07-30 13:20:00,93.8,75.2,30.16,NE,35,0.0,0.0,55,0.00,,,0.00,Wunderground v.1.15,2013-07-30 17:20:00,
2013-07-30 15:52:00,97.5,73.2,30.10,East,81,0.0,0.0,46,0.00,,,0.00,Wunderground v.1.15,2013-07-30 19:52:00,
2013-07-30 15:58:00,97.1,73.5,30.10,ENE,65,0.0,0.0,47,0.00,,,0.00,Wunderground v.1.15,2013-07-30 19:58:00,
2013-07-30 15:59:00,97.0,72.8,30.10,East,82,0.0,0.0,46,0.00,,,0.00,Wunderground v.1.15,2013-07-30 19:59:00,
2013-07-30 16:05:00,96.7,73.2,30.10,North,9,0.0,3.0,47,0.00,,,0.00,Wunderground v.1.15,2013-07-30 20:05:00,
2013-07-30 16:11:00,96.7,72.5,30.09,South,190,0.0,0.0,46,0.00,,,0.00,Wunderground v.1.15,2013-07-30 20:11:00,
2013-07-30 16:16:00,96.6,73.7,30.09,SE,143,0.0,0.0,48,0.00,,,0.00,Wunderground v.1.15,2013-07-30 20:16:00,
2013-07-30 16:21:00,96.8,73.2,30.09,NNE,14,0.0,0.0,47,0.00,,,0.00,Wunderground v.1.15,2013-07-30 20:21:00,
2013-07-30 16:26:00,97.2,73.0,30.08,South,171,0.0,0.0,46,0.00,,,0.00,Wunderground v.1.15,2013-07-30 20:26:00,
2013-07-30 16:32:00,97.5,73.2,30.08,ESE,103,0.0,0.0,46,0.00,,,0.00,Wunderground v.1.15,2013-07-30 20:32:00,
2013-07-30 16:37:00,97.3,73.1,30.08,ESE,121,0.0,0.0,46,0.00,,,0.00,Wunderground v.1.15,2013-07-30 20:37:00,
2013-07-30 16:42:00,97.1,73.5,30.08,South,176,0.0,0.0,47,0.00,,,0.00,Wunderground v.1.15,2013-07-30 20:42:00,
2013-07-30 16:47:00,96.6,73.1,30.08,South,171,0.0,3.0,47,0.00,,,0.00,Wunderground v.1.15,2013-07-30 20:47:00,
2013-07-30 16:52:00,96.4,73.5,30.08,South,175,1.0,1.0,48,0.00,,,0.00,Wunderground v.1.15,2013-07-30 20:52:00,
2013-07-30 16:58:00,95.8,73.0,30.09,South,181,1.0,2.0,48,0.00,,,0.00,Wunderground v.1.15,2013-07-30 20:58:00,
2013-07-30 17:03:00,94.9,72.8,30.08,South,183,0.0,4.0,49,0.00,,,0.00,Wunderground v.1.15,2013-07-30 21:03:00,
2013-07-30 17:08:00,94.6,73.1,30.08,South,184,0.0,4.0,50,0.00,,,0.00,Wunderground v.1.15,2013-07-30 21:08:00,
2013-07-30 17:14:00,94.3,72.2,30.08,South,177,0.0,0.0,49,0.00,,,0.00,Wunderground v.1.15,2013-07-30 21:14:00,
2013-07-30 17:19:00,94.0,72.5,30.09,South,176,0.0,0.0,50,0.00,,,0.00,Wunderground v.1.15,2013-07-30 21:19:00,
2013-07-30 17:25:00,94.0,72.5,30.09,South,176,0.0,0.0,50,0.00,,,0.00,Wunderground v.1.15,2013-07-30 21:25:00,
2013-07-30 17:30:00,93.9,73.6,30.08,South,179,0.0,0.0,52,0.00,,,0.00,Wunderground v.1.15,2013-07-30 21:30:00,
2013-07-30 17:35:00,94.1,76.0,30.09,North,355,0.0,0.0,56,0.00,,,0.00,Wunderground v.1.15,2013-07-30 21:35:00,
2013-07-30 17:40:00,94.3,76.2,30.09,West,269,0.0,0.0,56,0.00,,,0.00,Wunderground v.1.15,2013-07-30 21:40:00,
2013-07-30 17:45:00,94.1,73.2,30.08,South,182,0.0,0.0,51,0.00,,,0.00,Wunderground v.1.15,2013-07-30 21:45:00,
2013-07-30 17:50:00,93.6,72.7,30.08,South,185,0.0,0.0,51,0.00,,,0.00,Wunderground v.1.15,2013-07-30 21:50:00,
2013-07-30 17:56:00,93.5,74.9,30.08,South,180,0.0,0.0,55,0.00,,,0.00,Wunderground v.1.15,2013-07-30 21:56:00,
2013-07-30 18:02:00,93.3,76.8,30.08,NNE,21,0.0,5.0,59,0.00,,,0.00,Wunderground v.1.15,2013-07-30 22:02:00,
2013-07-30 18:07:00,93.1,75.6,30.08,WNW,302,0.0,5.0,57,0.00,,,0.00,Wunderground v.1.15,2013-07-30 22:07:00,
2013-07-30 18:12:00,93.0,77.1,30.08,NW,306,0.0,0.0,60,0.00,,,0.00,Wunderground v.1.15,2013-07-30 22:12:00,
2013-07-30 18:17:00,93.0,77.1,30.08,NW,309,0.0,0.0,60,0.00,,,0.00,Wunderground v.1.15,2013-07-30 22:17:00,
2013-07-30 18:22:00,93.0,77.6,30.08,NW,309,0.0,0.0,61,0.00,,,0.00,Wunderground v.1.15,2013-07-30 22:22:00,
2013-07-30 18:28:00,92.5,77.6,30.08,NW,319,0.0,3.0,62,0.00,,,0.00,Wunderground v.1.15,2013-07-30 22:28:00,
2013-07-30 18:33:00,92.2,77.8,30.08,NW,321,0.0,0.0,63,0.00,,,0.00,Wunderground v.1.15,2013-07-30 22:33:00,
2013-07-30 18:38:00,91.7,77.3,30.08,NNW,333,0.0,0.0,63,0.00,,,0.00,Wunderground v.1.15,2013-07-30 22:38:00,
2013-07-30 18:43:00,91.3,77.4,30.08,NNW,333,0.0,0.0,64,0.00,,,0.00,Wunderground v.1.15,2013-07-30 22:43:00,
2013-07-30 18:49:00,90.8,77.4,30.09,NNW,333,0.0,0.0,65,0.00,,,0.00,Wunderground v.1.15,2013-07-30 22:49:00,
2013-07-30 18:54:00,90.2,76.8,30.10,SE,138,1.0,8.0,65,0.00,,,0.00,Wunderground v.1.15,2013-07-30 22:54:00,
2013-07-30 18:59:00,88.2,74.5,30.08,SSW,199,4.0,14.0,64,0.00,,,0.00,Wunderground v.1.15,2013-07-30 22:59:00,
2013-07-30 19:05:00,86.6,74.3,30.08,SSW,211,4.0,6.0,67,0.00,,,0.00,Wunderground v.1.15,2013-07-30 23:05:00,
2013-07-30 19:11:00,85.3,74.4,30.09,South,191,3.0,4.0,70,0.00,,,0.00,Wunderground v.1.15,2013-07-30 23:11:00,
2013-07-30 19:16:00,84.8,73.9,30.09,SSE,167,3.0,4.0,70,0.00,,,0.00,Wunderground v.1.15,2013-07-30 23:16:00,
2013-07-30 19:21:00,84.4,76.0,30.09,SSW,207,3.0,3.0,76,1.92,,,0.06,Wunderground v.1.15,2013-07-30 23:21:00,
2013-07-30 19:26:00,82.7,74.0,30.11,West,268,2.0,3.0,75,0.18,,,0.10,Wunderground v.1.15,2013-07-30 23:26:00,
2013-07-30 19:31:00,81.4,74.3,30.12,WNW,296,0.0,0.0,79,0.10,,,0.10,Wunderground v.1.15,2013-07-30 23:31:00,
2013-07-30 19:36:00,79.9,73.5,30.12,NNW,334,0.0,0.0,81,0.34,,,0.13,Wunderground v.1.15,2013-07-30 23:36:00,
2013-07-30 19:41:00,79.1,74.9,30.13,WNW,291,0.0,2.0,87,0.40,,,0.16,Wunderground v.1.15,2013-07-30 23:41:00,
2013-07-30 19:47:00,78.6,75.1,30.12,NW,322,0.0,4.0,89,0.27,,,0.19,Wunderground v.1.15,2013-07-30 23:47:00,
2013-07-30 19:52:00,78.3,75.1,30.12,NW,319,0.0,0.0,90,0.37,,,0.22,Wunderground v.1.15,2013-07-30 23:52:00,
2013-07-30 19:57:00,78.1,75.3,30.12,NW,308,0.0,0.0,91,0.20,,,0.24,Wunderground v.1.15,2013-07-30 23:57:00,
2013-07-30 20:02:00,78.1,75.6,30.12,NW,309,0.0,16.0,92,0.22,,,0.26,Wunderground v.1.15,2013-07-31 00:02:00,
2013-07-30 20:07:00,77.8,74.6,30.13,NNW,339,0.0,16.0,90,0.14,,,0.27,Wunderground v.1.15,2013-07-31 00:07:00,
2013-07-30 20:12:00,77.2,74.0,30.13,NNW,338,0.0,0.0,90,0.06,,,0.27,Wunderground v.1.15,2013-07-31 00:12:00,
2013-07-30 20:17:00,77.0,74.2,30.13,NNW,338,0.0,0.0,91,0.05,,,0.28,Wunderground v.1.15,2013-07-31 00:17:00,
2013-07-30 20:22:00,77.0,74.5,30.13,NNW,339,0.0,0.0,92,0.05,,,0.28,Wunderground v.1.15,2013-07-31 00:22:00,
2013-07-30 20:27:00,77.0,74.5,30.13,NNW,339,0.0,0.0,92,0.04,,,0.28,Wunderground v.1.15,2013-07-31 00:27:00,
2013-07-30 20:33:00,77.1,74.6,30.13,NNW,339,0.0,0.0,92,0.00,,,0.28,Wunderground v.1.15,2013-07-31 00:33:00,
2013-07-30 20:39:00,77.2,75.0,30.13,NNW,339,0.0,0.0,93,0.00,,,0.28,Wunderground v.1.15,2013-07-31 00:39:00,
2013-07-30 20:44:00,77.3,75.1,30.13,NNW,339,0.0,0.0,93,0.00,,,0.28,Wunderground v.1.15,2013-07-31 00:44:00,
2013-07-30 20:49:00,77.3,75.1,30.13,NNW,339,0.0,0.0,93,0.00,,,0.28,Wunderground v.1.15,2013-07-31 00:49:00,
2013-07-30 20:54:00,77.2,75.0,30.14,NNW,339,0.0,0.0,93,0.00,,,0.28,Wunderground v.1.15,2013-07-31 00:54:00,
2013-07-30 20:59:00,77.2,75.0,30.14,NNW,338,0.0,0.0,93,0.00,,,0.28,Wunderground v.1.15,2013-07-31 00:59:00,
2013-07-30 21:05:00,77.2,75.0,30.13,NNW,339,0.0,0.0,93,0.00,,,0.28,Wunderground v.1.15,2013-07-31 01:05:00,
2013-07-30 21:11:00,77.2,75.0,30.13,NNW,338,0.0,0.0,93,0.00,,,0.28,Wunderground v.1.15,2013-07-31 01:11:00,
2013-07-30 21:16:00,77.3,75.4,30.13,NNW,338,0.0,0.0,94,0.00,,,0.28,Wunderground v.1.15,2013-07-31 01:16:00,
2013-07-30 21:21:00,77.5,75.6,30.13,NNW,339,0.0,0.0,94,0.00,,,0.29,Wunderground v.1.15,2013-07-31 01:21:00,
2013-07-30 21:26:00,77.6,75.7,30.12,NNW,338,0.0,0.0,94,0.00,,,0.29,Wunderground v.1.15,2013-07-31 01:26:00,
2013-07-30 21:32:00,77.7,75.8,30.12,NNW,338,0.0,0.0,94,0.00,,,0.29,Wunderground v.1.15,2013-07-31 01:32:00,
2013-07-30 21:37:00,77.7,75.8,30.12,NNW,338,0.0,0.0,94,0.00,,,0.29,Wunderground v.1.15,2013-07-31 01:37:00,
2013-07-30 21:43:00,77.7,75.8,30.13,NNW,338,0.0,0.0,94,0.00,,,0.29,Wunderground v.1.15,2013-07-31 01:43:00,
2013-07-30 21:48:00,78.0,76.5,30.13,NNW,338,0.0,0.0,95,0.00,,,0.29,Wunderground v.1.15,2013-07-31 01:48:00,
2013-07-30 21:53:00,78.2,76.6,30.14,NNW,339,0.0,0.0,95,0.00,,,0.29,Wunderground v.1.15,2013-07-31 01:53:00,
2013-07-30 21:58:00,78.2,76.3,30.15,NNW,339,0.0,0.0,94,0.00,,,0.29,Wunderground v.1.15,2013-07-31 01:58:00,
2013-07-30 22:04:00,78.3,76.7,30.14,NNW,338,0.0,0.0,95,0.00,,,0.29,Wunderground v.1.15,2013-07-31 02:04:00,
2013-07-30 22:09:00,78.3,76.7,30.15,NNW,338,0.0,0.0,95,0.00,,,0.29,Wunderground v.1.15,2013-07-31 02:09:00,
2013-07-30 22:14:00,78.4,76.8,30.15,NNW,339,0.0,0.0,95,0.00,,,0.29,Wunderground v.1.15,2013-07-31 02:14:00,
2013-07-30 22:19:00,78.4,76.5,30.14,NNW,339,0.0,0.0,94,0.00,,,0.29,Wunderground v.1.15,2013-07-31 02:19:00,
2013-07-30 22:25:00,78.5,76.9,30.14,NNW,338,0.0,0.0,95,0.00,,,0.29,Wunderground v.1.15,2013-07-31 02:25:00,
2013-07-30 22:30:00,78.7,77.1,30.15,NNW,339,0.0,0.0,95,0.00,,,0.29,Wunderground v.1.15,2013-07-31 02:30:00,
2013-07-30 22:35:00,78.9,77.3,30.16,NNW,339,0.0,0.0,95,0.00,,,0.29,Wunderground v.1.15,2013-07-31 02:35:00,
2013-07-30 22:40:00,78.9,77.3,30.16,NNW,338,0.0,0.0,95,0.00,,,0.29,Wunderground v.1.15,2013-07-31 02:40:00,
2013-07-30 22:45:00,78.8,77.2,30.16,NNW,338,0.0,0.0,95,0.00,,,0.29,Wunderground v.1.15,2013-07-31 02:45:00,
2013-07-30 22:50:00,78.7,76.8,30.16,NNW,339,0.0,0.0,94,0.00,,,0.29,Wunderground v.1.15,2013-07-31 02:50:00,
2013-07-30 22:55:00,78.6,76.7,30.16,NNW,338,0.0,0.0,94,0.00,,,0.29,Wunderground v.1.15,2013-07-31 02:55:00,
2013-07-30 23:01:00,78.6,76.7,30.16,NNW,338,0.0,0.0,94,0.00,,,0.29,Wunderground v.1.15,2013-07-31 03:01:00,
2013-07-30 23:06:00,78.6,76.7,30.16,NNW,339,0.0,0.0,94,0.00,,,0.29,Wunderground v.1.15,2013-07-31 03:06:00,
2013-07-30 23:12:00,78.5,76.6,30.15,NNW,338,0.0,0.0,94,0.00,,,0.29,Wunderground v.1.15,2013-07-31 03:12:00,
2013-07-30 23:17:00,78.5,76.6,30.15,NNW,339,0.0,0.0,94,0.00,,,0.29,Wunderground v.1.15,2013-07-31 03:17:00,
2013-07-30 23:22:00,78.5,76.9,30.15,NNW,339,0.0,0.0,95,0.00,,,0.29,Wunderground v.1.15,2013-07-31 03:22:00,
2013-07-30 23:28:00,78.6,77.0,30.15,NNW,339,0.0,0.0,95,0.00,,,0.29,Wunderground v.1.15,2013-07-31 03:28:00,
2013-07-30 23:33:00,78.6,77.0,30.15,NNW,339,0.0,0.0,95,0.00,,,0.29,Wunderground v.1.15,2013-07-31 03:33:00,
2013-07-30 23:38:00,78.7,77.1,30.15,NNW,339,0.0,0.0,95,0.00,,,0.29,Wunderground v.1.15,2013-07-31 03:38:00,
2013-07-30 23:43:00,78.7,77.1,30.15,NNW,338,0.0,0.0,95,0.00,,,0.29,Wunderground v.1.15,2013-07-31 03:43:00,
2013-07-30 23:48:00,78.7,77.1,30.15,NNW,338,0.0,0.0,95,0.00,,,0.29,Wunderground v.1.15,2013-07-31 03:48:00,
2013-07-30 23:53:00,78.7,77.1,30.15,NNW,339,0.0,0.0,95,0.00,,,0.29,Wunderground v.1.15,2013-07-31 03:53:00,
2013-07-30 23:59:00,78.7,77.1,30.15,NNW,339,0.0,0.0,95,0.00,,,0.29,Wunderground v.1.15,2013-07-31 03:59:00,